Location: Unspecified
(48.2082°N, 0.0000°E)
Time: 22:13:49
(UTC+00:00)

A-11 Canister half - Pass Details

Date: 21 June 2019
Orbit: 1514 x 1686 km, 47.2° (Epoch: 12 October)

Event Time Altitude Azimuth Distance (km) Brightness Sun altitude
Rises 09:47:36 0° 207° (SSW) 4,909 11.7 53.7°
Reaches altitude 10° 09:51:08 10° 199° (SSW) 3,908 11.4 54.2°
Maximum altitude 09:59:47 35° 138° (SE) 2,417 11.6 55.4°
Drops below altitude 10° 10:08:12 10° 78° (ENE) 3,809 11.5 56.6°
Sets 10:11:35 0° 70° (ENE) 4,771 11.8 57.0°
